Regional Weather Roundup
Issued by NWS

Home | Current Version | Previous Version | Text Only | Print | Product List | Glossary On
Versions: 1 2 3 4 5 6 7 8 9 10 11 12 13 14 15 16 17 18 19 20 21 22 23 24 25 26 27 28 29 30 31 32 33 34 35 36 37 38 39 40 41 42 43 44 45 46 47 48 49 50
000
ASUS43 KBIS 030610
RWRND

NORTH DAKOTA REGIONAL WEATHER ROUNDUP
NATIONAL WEATHER SERVICE BISMARCK ND
100 AM CDT THU SEP 03 2015

NOTE: "FAIR" INDICATES FEW OR NO CLOUDS BELOW 12,000 FEET WITH NO
SIGNIFICANT WEATHER AND/OR OBSTRUCTIONS TO VISIBILITY.


NDZ001>003-009>011-017-030700-
NORTHWEST NORTH DAKOTA

CITY           SKY/WX    TMP DP  RH WIND       PRES   REMARKS
WILLISTON      MOCLDY    78  54  43 S5        29.64S
6HR MIN TEMP:  74; 6HR MAX TEMP:  96;

MINOT          FAIR      66  62  87 E6        29.69F
MINOT AFB      FAIR      69  69  98 SE10      29.67F
$$

NDZ018>021-031>035-040>046-030700-
SOUTHWEST NORTH DAKOTA

CITY           SKY/WX    TMP DP  RH WIND       PRES   REMARKS
BISMARCK       CLEAR     75  70  84 E8        29.72F
6HR MIN TEMP:  71; 6HR MAX TEMP:  90;

DICKINSON      PTCLDY    68  56  65 SE8       29.70F
GARRISON         N/A     72  65  78 SE8       29.71F
6HR MIN TEMP:  71; 6HR MAX TEMP:  88;

HETTINGER ARPT CLEAR     72  58  61 E8        29.74F
$$

NDZ004>008-012>016-024-026-027-054-030700-
NORTHEAST NORTH DAKOTA

CITY           SKY/WX    TMP DP  RH WIND       PRES   REMARKS
GRAND FORKS    FAIR      73  67  81 SE15      29.79F
GRND FRKS AFB  FAIR      72  67  84 S12       29.80F
DEVILS LAKE    FAIR      72  64  78 SE13      29.76F
$$

NDZ022-023-025-028>030-036>039-047>053-030700-
SOUTHEAST NORTH DAKOTA

CITY           SKY/WX    TMP DP  RH WIND       PRES   REMARKS
FARGO          FAIR      74  68  81 SE12      29.81S
6HR MIN TEMP:  73; 6HR MAX TEMP:  85;

JAMESTOWN      FAIR      73  71  93 SE12      29.78S FOG
$$



USA.gov is the U.S. government's official web portal to all federal, state and local government web resources and services.